Location: Madrid
(40.4000°N, 3.6830°W)
Time: 19:42:58
(UTC+01:00)

ISS - Pass Details

Date: 28 February 2021
Orbit: 417 x 422 km, 51.6° (Epoch: 26 February)

Event Time Altitude Azimuth Distance (km) Brightness Sun altitude
Exits shadow 05:39:31 15° 20° (NNE) 1,216 -1.1 -25.5°
Drops below altitude 10° 05:40:27 10° 32° (NNE) 1,498 -0.4 -25.3°
Sets 05:42:51 0° 48° (NE) 2,364 1.0 -24.9°
